User: anonymous   Login
Location: Unspecified
(0.0000°N, 0.0000°E)
Time: 00:28:42
(UTC+00:00)
Language:

CANX 3A (UNIBRITE) - Orbit

View from above orbital plane
View from above orbital plane
View from above satellite
View from above satellite

Ground track
Ground track

The orbit data is extracted from the following two-line orbital elements,

1 39092U 13009G   14304.12509441  .00000245  00000-0  10224-3 0  5218
2 39092 098.6125 138.2741 0008431 263.3147 096.7078 14.34625604 87809
Epoch (UTC): 31 October 2014 03:00:08
Eccentricity: 0.0008431
inclination: 98.6125°
perigee height: 770 km
apogee height: 782 km
right ascension of ascending node: 138.2741°
argument of perigee: 263.3147°
revolutions per day: 14.34625604
mean anomaly at epoch: 96.7078°
orbit number at epoch: 8780

The dashed part of the orbit path shows where the satellite is in the earth's shadow,  

DLR